Regional Weather Roundup
Issued by NWS

Home | Current Version | Previous Version | Text Only | Print | Product List | Glossary On
Versions: 1 2 3 4 5 6 7 8 9 10 11 12 13 14 15 16 17 18 19 20 21 22 23 24 25 26 27 28 29 30 31 32 33 34 35 36 37 38 39 40 41 42 43 44 45 46 47 48 49 50
000
ASUS43 KOAX 302010
RWRNE

WEATHER ROUNDUP FOR NEBRASKA
NATIONAL WEATHER SERVICE OMAHA NE
300 PM CDT FRI SEP 30 2016

NOTES: SATELLITE DATA IS BEING USED TO AUGMENT CLOUD COVER ABOVE
       12000 FEET.
       "FAIR" INDICATES FEW OR NO CLOUDS BELOW 12,000 FEET WITH NO
       SIGNIFICANT WEATHER AND/OR OBSTRUCTIONS TO VISIBILITY.

  * THESE STATIONS DO NOT REPORT WEATHER SUCH AS RAIN...SNOW OR FOG.

NEZ001>004-019>022-054>056-302100-
NEBRASKA PANHANDLE

CITY           SKY/WX    TMP DP  RH WIND       PRES   REMARKS
SCOTTSBLUFF    CLOUDY    65  48  54 E3        30.14F
ALLIANCE       CLOUDY    68  45  43 S14       30.14F
CHADRON        CLOUDY    75  48  38 SW10      30.07F
KIMBALL        CLOUDY    72  50  45 NW12      30.19F
SIDNEY         MOSUNNY   68  44  42 SE9       30.18F
$$

NEZ057>060-069>072-079>082-302100-
SOUTHWEST NEBRASKA

CITY           SKY/WX    TMP DP  RH WIND       PRES   REMARKS
NORTH PLATTE   PTSUNNY   70  46  42 S14       30.18F
IMPERIAL       MOSUNNY   72  45  37 SE15      30.16F
LEXINGTON      MOSUNNY   69  44  40 SE9       30.19F
MCCOOK         PTSUNNY   71  48  43 SE13      30.17F
OGALLALA       PTSUNNY   70  46  42 S9        30.16F
$$

NEZ005>010-023>029-035>040-094-302100-
NORTH CENTRAL NEBRASKA

CITY           SKY/WX    TMP DP  RH WIND       PRES   REMARKS
VALENTINE      SUNNY     73  44  35 S20G28    30.14F
AINSWORTH      CLOUDY    70  47  43 S12       30.17F
BROKEN BOW     PTSUNNY   67  45  45 S10       30.19F
O`NEILL        CLOUDY    71  42  34 SE10      30.21F
ORD            CLOUDY    68  44  42 SE10      30.19F
THEDFORD       PTSUNNY   68  47  47 S12G17    30.19S
$$

NEZ041-046>049-061>064-073>077-083>087-302100-
SOUTH CENTRAL NEBRASKA

CITY           SKY/WX    TMP DP  RH WIND       PRES   REMARKS
GRAND ISLAND   CLOUDY    69  42  37 S8        30.21F
AURORA         MOSUNNY   71  44  38 E7        30.20F
HASTINGS       MOSUNNY   70  39  32 VRB5      30.21F
HEBRON         MOSUNNY   71  45  38 CALM      30.19F
HOLDREGE       MOSUNNY   69  44  40 SE12      30.19F
KEARNEY *      MOSUNNY   72  45  37 SE7G16    30.19F
YORK           MOSUNNY   72  45  37 S6        30.20F
$$

NEZ011>018-030>034-042>045-302100-
NORTHEAST NEBRASKA

CITY           SKY/WX    TMP DP  RH WIND       PRES   REMARKS
NORFOLK        SUNNY     73  41  31 E9        30.20F
ALBION         CLOUDY    72  42  33 SE12      30.20F
BLAIR          SUNNY     73  48  42 E7        30.19F
FREMONT        SUNNY     71  45  39 E5        30.20F
TEKAMAH        SUNNY     76  45  33 NE10      30.19F
WAYNE          SUNNY     72  49  44 E7G16     30.21F
$$

NEZ050>053-065>068-078-088>093-302100-
SOUTHEAST NEBRASKA

CITY           SKY/WX    TMP DP  RH WIND       PRES   REMARKS
LINCOLN        SUNNY     75  47  36 NE8       30.20F
OMAHA EPPLEY   MOSUNNY   75  45  34 NE8       30.18F
BEATRICE       SUNNY     73  48  41 E6        30.19F
FALLS CITY     SUNNY     74  48  39 NE8G16    30.16F
NEBRASKA CITY  SUNNY     73  38  28 NE8       30.18F
PLATTSMOUTH    SUNNY     74  38  27 NE8       30.18F
$$

NEZ044-045-051>053-067-302100-
OMAHA AREA

CITY           SKY/WX    TMP DP  RH WIND       PRES   REMARKS
OMAHA EPPLEY   MOSUNNY   75  45  34 NE8       30.18F
BLAIR          SUNNY     73  48  42 E7        30.19F
FREMONT        SUNNY     71  45  39 E5        30.20F
MILLARD        SUNNY     73  48  41 CALM      30.18F
OFFUTT AFB     SUNNY     74  47  39 N9        30.17F
PLATTSMOUTH    SUNNY     74  38  27 NE8       30.18F
WAHOO          FAIR      73  42  33 CALM      30.19F
$$




USA.gov is the U.S. government's official web portal to all federal, state and local government web resources and services.